QPF
0.00 0.00 0.00 0.00 0.00 0.00 0.00 0.00 0.00 0.01 0.02 0.02 0.02 0.02 0.02 0.01 0.02 0.02 0.02 0.03 0.05 0.09 0.16 0.17 0.13 0.11 0.12 0.13 0.11 0.07 0.07 0.05 0.04 0.04 0.04 0.04 0.02 0.02 0.02 0.02 0.01 0.01 0.01
0.00 0.00 0.00 0.00 0.00 0.00 0.00 0.00 0.00 0.01 0.01 0.01 0.01 0.02 0.02 0.01 0.02 0.04 0.05 0.04 0.05 0.06 0.10 0.14 0.13 0.11 0.12 0.12 0.12 0.10 0.08 0.06 0.05 0.04 0.04 0.04 0.03 0.02 0.02 0.01 0.01 0.01 0.01
0.00 0.00 0.00 0.00 0.00 0.00 0.00 0.00 0.00 0.01 0.01 0.01 0.01 0.01 0.01 0.01 0.04 0.07 0.06 0.05 0.05 0.05 0.07 0.11 0.13 0.12 0.13 0.15 0.11 0.10 0.10 0.08 0.06 0.05 0.04 0.04 0.03 0.03 0.03 0.01 0.01 0.01 0.01
0.00 0.00 0.00 0.00 0.00 0.00 0.00 0.00 0.00 0.00 0.01 0.00 0.01 0.01 0.01 0.01 0.05 0.07 0.05 0.04 0.04 0.05 0.05 0.06 0.08 0.10 0.13 0.15 0.13 0.12 0.11 0.08 0.07 0.07 0.05 0.04 0.03 0.03 0.04 0.02 0.02 0.02 0.01
0.00 0.00 0.00 0.00 0.00 0.00 0.00 0.00 0.00 0.00 0.00 0.01 0.01 0.00 0.01 0.02 0.05 0.06 0.05 0.05 0.05 0.06 0.07 0.06 0.06 0.07 0.10 0.14 0.15 0.14 0.12 0.10 0.08 0.08 0.06 0.04 0.03 0.03 0.03 0.02 0.02 0.02 0.02
0.00 0.00 0.00 0.00 0.00 0.00 0.00 0.00 0.00 0.01 0.01 0.01 0.01 0.01 0.02 0.03 0.05 0.05 0.07 0.08 0.07 0.08 0.08 0.09 0.07 0.06 0.07 0.09 0.12 0.13 0.13 0.12 0.09 0.08 0.08 0.05 0.04 0.03 0.03 0.02 0.03 0.03 0.03
0.00 0.00 0.00 0.00 0.00 0.00 0.01 0.01 0.01 0.01 0.01 0.02 0.02 0.02 0.04 0.06 0.07 0.05 0.06 0.08 0.07 0.07 0.08 0.09 0.07 0.06 0.05 0.06 0.07 0.09 0.11 0.12 0.13 0.10 0.11 0.09 0.05 0.03 0.03 0.03 0.03 0.03 0.04
0.00 0.00 0.00 0.00 0.00 0.00 0.01 0.01 0.01 0.01 0.01 0.02 0.01 0.02 0.04 0.06 0.07 0.06 0.05 0.06 0.08 0.07 0.06 0.08 0.09 0.08 0.07 0.05 0.04 0.06 0.08 0.11 0.13 0.12 0.13 0.13 0.09 0.06 0.04 0.04 0.03 0.04 0.05
0.00 0.00 0.00 0.00 0.00 0.01 0.01 0.01 0.01 0.02 0.03 0.02 0.01 0.02 0.03 0.04 0.05 0.05 0.06 0.07 0.07 0.08 0.06 0.06 0.08 0.09 0.07 0.04 0.04 0.03 0.05 0.08 0.12 0.12 0.12 0.12 0.10 0.09 0.08 0.06 0.05 0.05 0.06
0.00 0.00 0.00 0.00 0.00 0.01 0.01 0.01 0.01 0.01 0.03 0.03 0.03 0.03 0.03 0.04 0.03 0.03 0.05 0.05 0.05 0.06 0.06 0.07 0.09 0.09 0.08 0.06 0.05 0.02 0.03 0.04 0.09 0.14 0.16 0.14 0.11 0.10 0.11 0.10 0.09 0.08 0.06
0.00 0.00 0.00 0.00 0.00 0.00 0.00 0.01 0.01 0.01 0.01 0.03 0.03 0.03 0.03 0.03 0.03 0.02 0.03 0.04 0.04 0.04 0.04 0.05 0.07 0.09 0.08 0.07 0.06 0.05 0.04 0.04 0.06 0.12 0.17 0.18 0.16 0.12 0.11 0.10 0.10 0.09 0.07
0.00 0.00 0.00 0.00 0.00 0.00 0.00 0.01 0.02 0.01 0.01 0.02 0.02 0.02 0.02 0.03 0.02 0.01 0.02 0.03 0.03 0.04 0.04 0.04 0.05 0.06 0.07 0.08 0.07 0.07 0.06 0.05 0.05 0.07 0.12 0.16 0.15 0.16 0.15 0.13 0.13 0.12 0.11
0.00 0.00 0.00 0.00 0.00 0.00 0.00 0.01 0.01 0.02 0.01 0.02 0.02 0.02 0.02 0.02 0.03 0.01 0.02 0.02 0.03 0.04 0.04 0.04 0.04 0.04 0.05 0.08 0.06 0.07 0.07 0.06 0.06 0.06 0.07 0.09 0.10 0.11 0.14 0.15 0.17 0.17 0.17
0.00 0.00 0.00 0.00 0.00 0.00 0.00 0.00 0.01 0.01 0.01 0.01 0.02 0.03 0.03 0.04 0.03 0.02 0.02 0.02 0.02 0.01 0.03 0.03 0.03 0.03 0.04 0.05 0.05 0.06 0.05 0.06 0.05 0.05 0.06 0.07 0.07 0.07 0.08 0.09 0.12 0.16 0.18
0.00 0.00 0.00 0.00 0.00 0.00 0.00 0.00 0.00 0.00 0.01 0.01 0.02 0.03 0.04 0.03 0.02 0.01 0.01 0.02 0.03 0.02 0.03 0.03 0.03 0.04 0.04 0.05 0.05 0.05 0.05 0.07 0.07 0.06 0.06 0.07 0.07 0.07 0.06 0.06 0.06 0.08 0.11
0.00 0.00 0.00 0.00 0.00 0.00 0.00 0.00 0.00 0.00 0.01 0.02 0.01 0.02 0.02 0.01 0.01 0.01 0.01 0.02 0.03 0.03 0.03 0.03 0.02 0.03 0.04 0.04 0.05 0.05 0.05 0.05 0.05 0.06 0.07 0.08 0.07 0.05 0.05 0.04 0.04 0.04 0.05
0.00 0.00 0.00 0.00 0.00 0.00 0.00 0.00 0.00 0.00 0.00 0.01 0.01 0.01 0.01 0.01 0.01 0.01 0.01 0.02 0.03 0.03 0.04 0.03 0.02 0.03 0.05 0.05 0.05 0.05 0.04 0.03 0.03 0.04 0.04 0.04 0.06 0.05 0.04 0.03 0.02 0.02 0.02
0.00 0.00 0.00 0.00 0.00 0.00 0.00 0.00 0.00 0.00 0.00 0.00 0.00 0.00 0.00 0.00 0.01 0.01 0.01 0.01 0.02 0.02 0.02 0.02 0.02 0.03 0.05 0.05 0.07 0.08 0.06 0.04 0.03 0.03 0.04 0.03 0.03 0.04 0.03 0.02 0.01 0.01 0.01
0.00 0.00 0.00 0.00 0.00 0.00 0.00 0.00 0.00 0.00 0.00 0.00 0.00 0.00 0.00 0.01 0.01 0.01 0.01 0.01 0.01 0.01 0.01 0.01 0.01 0.02 0.03 0.04 0.06 0.07 0.08 0.07 0.06 0.04 0.04 0.04 0.03 0.02 0.03 0.02 0.01 0.01 0.01
0.00 0.00 0.00 0.00 0.00 0.00 0.00 0.00 0.00 0.00 0.00 0.00 0.00 0.01 0.01 0.00 0.01 0.01 0.00 0.00 0.00 0.00 0.00 0.00 0.00 0.00 0.02 0.03 0.05 0.06 0.07 0.05 0.06 0.04 0.03 0.03 0.03 0.02 0.01 0.02 0.01 0.01 0.01
0.00 0.00 0.00 0.00 0.00 0.00 0.00 0.00 0.00 0.00 0.00 0.00 0.00 0.00 0.00 0.00 0.00 0.01 0.01 0.00 0.00 0.01 0.00 0.00 0.00 0.00 0.01 0.03 0.05 0.04 0.05 0.04 0.04 0.03 0.02 0.02 0.02 0.02 0.01 0.01 0.02 0.02 0.02
0.00 0.00 0.00 0.00 0.00 0.00 0.00 0.00 0.00 0.00 0.00 0.00 0.00 0.00 0.00 0.00 0.00 0.00 0.00 0.00 0.01 0.01 0.01 0.01 0.01 0.00 0.00 0.01 0.03 0.03 0.03 0.03 0.02 0.02 0.02 0.01 0.02 0.01 0.01 0.01 0.01 0.01 0.02
0.00 0.00 0.00 0.00 0.00 0.00 0.00 0.00 0.00 0.00 0.00 0.00 0.00 0.00 0.00 0.00 0.00 0.00 0.01 0.01 0.00 0.01 0.01 0.01 0.01 0.01 0.01 0.00 0.01 0.02 0.01 0.02 0.02 0.02 0.02 0.01 0.01 0.01 0.01 0.00 0.01 0.01 0.02
0.00 0.00 0.00 0.00 0.00 0.00 0.00 0.00 0.00 0.00 0.00 0.00 0.00 0.00 0.00 0.00 0.00 0.00 0.00 0.00 0.01 0.00 0.01 0.01 0.01 0.01 0.01 0.01 0.01 0.02 0.01 0.01 0.01 0.01 0.01 0.01 0.01 0.01 0.01 0.01 0.01 0.02 0.02
0.00 0.00 0.00 0.00 0.00 0.00 0.00 0.00 0.00 0.00 0.00 0.00 0.00 0.00 0.00 0.00 0.00 0.00 0.00 0.00 0.01 0.00 0.00 0.01 0.01 0.02 0.03 0.03 0.02 0.01 0.01 0.01 0.01 0.01 0.01 0.01 0.01 0.01 0.01 0.01 0.03 0.04 0.04
0.00 0.00 0.00 0.00 0.00 0.00 0.00 0.00 0.00 0.00 0.00 0.00 0.00 0.00 0.00 0.00 0.00 0.00 0.00 0.00 0.01 0.00 0.00 0.01 0.02 0.01 0.02 0.02 0.02 0.02 0.01 0.01 0.01 0.00 0.01 0.01 0.02 0.02 0.02 0.02 0.02 0.03 0.05
MSLP
1014.82 1014.82 1014.73 1014.57 1014.36 1014.13 1013.92 1013.73 1013.58 1013.45 1013.34 1013.23 1013.11 1012.98 1012.84 1012.69 1012.55 1012.43 1012.35 1012.29 1012.27 1012.27 1012.29 1012.32 1012.37 1012.44 1012.52 1012.62 1012.73 1012.85 1012.98 1013.11 1013.26 1013.42 1013.61 1013.83 1014.08 1014.37 1014.69 1015.03 1015.36 1015.67 1015.95
1014.91 1014.92 1014.85 1014.72 1014.55 1014.35 1014.16 1013.97 1013.81 1013.66 1013.52 1013.37 1013.22 1013.04 1012.86 1012.68 1012.51 1012.37 1012.25 1012.18 1012.14 1012.13 1012.15 1012.20 1012.25 1012.32 1012.41 1012.50 1012.60 1012.71 1012.83 1012.97 1013.12 1013.31 1013.52 1013.77 1014.06 1014.39 1014.73 1015.08 1015.43 1015.75 1016.05
1014.96 1014.97 1014.93 1014.84 1014.71 1014.56 1014.39 1014.22 1014.05 1013.88 1013.71 1013.53 1013.34 1013.13 1012.92 1012.71 1012.51 1012.33 1012.20 1012.10 1012.04 1012.02 1012.03 1012.06 1012.12 1012.19 1012.26 1012.35 1012.44 1012.54 1012.66 1012.79 1012.96 1013.16 1013.39 1013.67 1013.99 1014.34 1014.71 1015.08 1015.44 1015.78 1016.09
1014.99 1015.00 1014.99 1014.94 1014.86 1014.76 1014.62 1014.47 1014.30 1014.12 1013.92 1013.70 1013.47 1013.24 1013.00 1012.76 1012.54 1012.35 1012.19 1012.06 1011.98 1011.94 1011.93 1011.96 1012.00 1012.06 1012.13 1012.21 1012.29 1012.39 1012.50 1012.63 1012.80 1013.01 1013.26 1013.55 1013.89 1014.26 1014.64 1015.02 1015.40 1015.76 1016.09
1015.01 1015.03 1015.05 1015.05 1015.02 1014.96 1014.86 1014.72 1014.55 1014.35 1014.12 1013.88 1013.63 1013.37 1013.11 1012.86 1012.63 1012.43 1012.25 1012.11 1012.01 1011.94 1011.91 1011.91 1011.94 1011.99 1012.05 1012.11 1012.19 1012.28 1012.39 1012.52 1012.69 1012.90 1013.15 1013.45 1013.79 1014.16 1014.55 1014.94 1015.33 1015.70 1016.05
1015.04 1015.07 1015.12 1015.16 1015.19 1015.17 1015.10 1014.98 1014.80 1014.59 1014.34 1014.07 1013.80 1013.54 1013.28 1013.03 1012.81 1012.61 1012.42 1012.27 1012.15 1012.05 1011.99 1011.97 1011.97 1012.00 1012.04 1012.10 1012.17 1012.25 1012.35 1012.48 1012.64 1012.85 1013.10 1013.39 1013.72 1014.08 1014.46 1014.85 1015.24 1015.61 1015.97
1015.08 1015.12 1015.20 1015.29 1015.36 1015.38 1015.34 1015.23 1015.05 1014.83 1014.57 1014.29 1014.02 1013.76 1013.52 1013.30 1013.10 1012.91 1012.73 1012.57 1012.43 1012.31 1012.21 1012.15 1012.12 1012.12 1012.14 1012.18 1012.23 1012.31 1012.40 1012.52 1012.67 1012.86 1013.09 1013.36 1013.67 1014.02 1014.38 1014.76 1015.13 1015.50 1015.86
1015.11 1015.17 1015.29 1015.41 1015.52 1015.58 1015.56 1015.47 1015.30 1015.07 1014.81 1014.55 1014.30 1014.07 1013.86 1013.68 1013.51 1013.35 1013.18 1013.02 1012.86 1012.70 1012.57 1012.46 1012.39 1012.34 1012.33 1012.34 1012.38 1012.43 1012.51 1012.61 1012.74 1012.91 1013.12 1013.37 1013.65 1013.97 1014.30 1014.66 1015.01 1015.37 1015.73
1015.11 1015.20 1015.35 1015.51 1015.65 1015.74 1015.75 1015.67 1015.52 1015.31 1015.08 1014.84 1014.62 1014.44 1014.28 1014.15 1014.03 1013.90 1013.76 1013.60 1013.42 1013.23 1013.05 1012.89 1012.76 1012.66 1012.60 1012.57 1012.57 1012.60 1012.65 1012.73 1012.84 1012.99 1013.17 1013.39 1013.64 1013.92 1014.23 1014.55 1014.88 1015.23 1015.58
1015.09 1015.20 1015.36 1015.55 1015.73 1015.85 1015.88 1015.84 1015.71 1015.53 1015.33 1015.14 1014.98 1014.85 1014.76 1014.69 1014.62 1014.53 1014.41 1014.25 1014.06 1013.84 1013.61 1013.40 1013.20 1013.05 1012.93 1012.85 1012.80 1012.79 1012.81 1012.86 1012.94 1013.06 1013.21 1013.40 1013.62 1013.87 1014.14 1014.43 1014.74 1015.06 1015.39
1015.01 1015.14 1015.32 1015.54 1015.73 1015.88 1015.94 1015.93 1015.84 1015.71 1015.55 1015.42 1015.32 1015.26 1015.23 1015.23 1015.21 1015.16 1015.07 1014.91 1014.71 1014.46 1014.20 1013.93 1013.68 1013.46 1013.28 1013.15 1013.05 1012.99 1012.97 1012.99 1013.04 1013.13 1013.26 1013.42 1013.61 1013.82 1014.06 1014.32 1014.59 1014.88 1015.19
1014.89 1015.02 1015.22 1015.45 1015.66 1015.82 1015.92 1015.94 1015.89 1015.81 1015.72 1015.64 1015.60 1015.61 1015.64 1015.69 1015.72 1015.72 1015.64 1015.50 1015.30 1015.04 1014.75 1014.45 1014.15 1013.89 1013.65 1013.46 1013.32 1013.21 1013.15 1013.13 1013.16 1013.22 1013.31 1013.44 1013.60 1013.78 1013.98 1014.20 1014.43 1014.69 1014.96
1014.72 1014.86 1015.06 1015.28 1015.50 1015.68 1015.80 1015.86 1015.86 1015.83 1015.79 1015.77 1015.79 1015.85 1015.94 1016.03 1016.10 1016.13 1016.08 1015.97 1015.78 1015.52 1015.23 1014.92 1014.60 1014.30 1014.03 1013.80 1013.61 1013.47 1013.36 1013.31 1013.30 1013.33 1013.40 1013.50 1013.63 1013.77 1013.93 1014.10 1014.29 1014.49 1014.72
1014.50 1014.64 1014.84 1015.06 1015.28 1015.47 1015.61 1015.70 1015.74 1015.75 1015.77 1015.80 1015.87 1015.97 1016.09 1016.21 1016.31 1016.37 1016.35 1016.27 1016.11 1015.88 1015.61 1015.32 1015.00 1014.70 1014.42 1014.16 1013.94 1013.76 1013.63 1013.54 1013.49 1013.49 1013.53 1013.60 1013.69 1013.80 1013.91 1014.03 1014.16 1014.31 1014.48
1014.25 1014.39 1014.58 1014.80 1015.01 1015.21 1015.36 1015.47 1015.55 1015.60 1015.66 1015.73 1015.83 1015.95 1016.09 1016.23 1016.35 1016.43 1016.45 1016.40 1016.29 1016.11 1015.89 1015.64 1015.36 1015.08 1014.81 1014.55 1014.31 1014.11 1013.94 1013.82 1013.74 1013.71 1013.71 1013.75 1013.80 1013.86 1013.92 1013.99 1014.06 1014.15 1014.26
1013.97 1014.11 1014.29 1014.50 1014.71 1014.90 1015.07 1015.20 1015.31 1015.39 1015.48 1015.57 1015.69 1015.82 1015.97 1016.12 1016.24 1016.34 1016.39 1016.39 1016.33 1016.23 1016.07 1015.88 1015.67 1015.43 1015.19 1014.94 1014.70 1014.48 1014.30 1014.14 1014.03 1013.96 1013.93 1013.92 1013.93 1013.94 1013.95 1013.96 1013.97 1013.99 1014.04
1013.64 1013.79 1013.96 1014.17 1014.37 1014.57 1014.75 1014.90 1015.03 1015.14 1015.24 1015.35 1015.48 1015.61 1015.76 1015.90 1016.03 1016.14 1016.22 1016.26 1016.27 1016.24 1016.16 1016.06 1015.91 1015.73 1015.53 1015.31 1015.09 1014.86 1014.66 1014.47 1014.33 1014.22 1014.15 1014.09 1014.05 1014.01 1013.97 1013.92 1013.87 1013.83 1013.82
1013.24 1013.40 1013.59 1013.79 1013.99 1014.20 1014.39 1014.56 1014.71 1014.84 1014.96 1015.08 1015.21 1015.34 1015.47 1015.60 1015.73 1015.86 1015.96 1016.05 1016.12 1016.16 1016.17 1016.14 1016.07 1015.96 1015.81 1015.62 1015.41 1015.19 1014.97 1014.77 1014.59 1014.45 1014.32 1014.23 1014.13 1014.04 1013.95 1013.85 1013.74 1013.65 1013.58
1012.75 1012.93 1013.13 1013.34 1013.55 1013.77 1013.97 1014.16 1014.33 1014.48 1014.62 1014.75 1014.88 1015.00 1015.12 1015.25 1015.38 1015.51 1015.64 1015.77 1015.89 1016.00 1016.08 1016.13 1016.13 1016.08 1015.98 1015.83 1015.64 1015.43 1015.20 1014.98 1014.78 1014.60 1014.43 1014.29 1014.15 1014.01 1013.86 1013.71 1013.56 1013.42 1013.31
1012.16 1012.36 1012.57 1012.79 1013.02 1013.25 1013.47 1013.68 1013.87 1014.04 1014.19 1014.33 1014.46 1014.58 1014.70 1014.82 1014.95 1015.10 1015.25 1015.41 1015.58 1015.74 1015.88 1015.99 1016.06 1016.07 1016.01 1015.90 1015.74 1015.54 1015.32 1015.09 1014.87 1014.66 1014.46 1014.27 1014.09 1013.90 1013.71 1013.51 1013.32 1013.14 1013.00
1011.44 1011.66 1011.89 1012.12 1012.37 1012.61 1012.85 1013.08 1013.28 1013.47 1013.64 1013.79 1013.92 1014.05 1014.17 1014.30 1014.44 1014.59 1014.76 1014.96 1015.16 1015.36 1015.55 1015.72 1015.83 1015.89 1015.89 1015.82 1015.69 1015.52 1015.32 1015.09 1014.86 1014.63 1014.40 1014.18 1013.96 1013.72 1013.49 1013.25 1013.03 1012.81 1012.64
1010.60 1010.83 1011.07 1011.32 1011.58 1011.84 1012.09 1012.33 1012.55 1012.76 1012.94 1013.11 1013.26 1013.40 1013.53 1013.67 1013.82 1013.99 1014.18 1014.39 1014.62 1014.86 1015.09 1015.29 1015.46 1015.56 1015.61 1015.59 1015.50 1015.37 1015.19 1014.99 1014.76 1014.53 1014.29 1014.04 1013.78 1013.51 1013.24 1012.96 1012.70 1012.45 1012.24
1009.67 1009.89 1010.13 1010.39 1010.66 1010.93 1011.19 1011.44 1011.68 1011.90 1012.10 1012.29 1012.46 1012.61 1012.77 1012.92 1013.09 1013.28 1013.49 1013.72 1013.98 1014.24 1014.50 1014.74 1014.94 1015.10 1015.19 1015.22 1015.19 1015.11 1014.98 1014.81 1014.61 1014.38 1014.14 1013.88 1013.59 1013.30 1012.99 1012.68 1012.37 1012.09 1011.84
1008.67 1008.87 1009.10 1009.35 1009.62 1009.89 1010.16 1010.42 1010.67 1010.91 1011.14 1011.35 1011.54 1011.73 1011.91 1012.09 1012.29 1012.50 1012.73 1012.98 1013.25 1013.53 1013.82 1014.09 1014.33 1014.53 1014.67 1014.76 1014.80 1014.77 1014.70 1014.58 1014.42 1014.22 1013.99 1013.72 1013.43 1013.11 1012.77 1012.43 1012.08 1011.76 1011.48
1007.64 1007.80 1008.00 1008.24 1008.49 1008.76 1009.03 1009.30 1009.57 1009.84 1010.09 1010.34 1010.57 1010.79 1011.01 1011.23 1011.45 1011.68 1011.94 1012.20 1012.49 1012.79 1013.09 1013.38 1013.66 1013.90 1014.10 1014.26 1014.35 1014.40 1014.39 1014.33 1014.21 1014.05 1013.84 1013.59 1013.30 1012.97 1012.62 1012.24 1011.87 1011.52 1011.19
1006.61 1006.71 1006.87 1007.07 1007.30 1007.56 1007.84 1008.13 1008.42 1008.72 1009.02 1009.31 1009.59 1009.87 1010.13 1010.39 1010.64 1010.90 1011.17 1011.46 1011.75 1012.06 1012.38 1012.69 1013.00 1013.28 1013.53 1013.74 1013.90 1014.02 1014.07 1014.07 1014.01 1013.90 1013.73 1013.50 1013.22 1012.90 1012.54 1012.15 1011.76 1011.37 1011.01
Thickness
5709 5707 5704 5702 5700 5698 5696 5695 5694 5694 5694 5696 5698 5701 5704 5707 5710 5714 5718 5723 5727 5730 5734 5736 5739 5741 5743 5745 5747 5748 5749 5750 5751 5752 5753 5753 5753 5753 5753 5754 5754 5754 5754
5707 5704 5701 5698 5696 5694 5692 5690 5689 5689 5689 5691 5693 5696 5699 5703 5707 5711 5715 5719 5724 5728 5731 5734 5737 5739 5741 5742 5745 5747 5748 5749 5750 5751 5751 5751 5751 5752 5752 5752 5752 5752 5752
5704 5701 5697 5694 5692 5690 5688 5687 5685 5685 5686 5687 5688 5691 5695 5699 5703 5707 5711 5715 5720 5724 5728 5731 5734 5737 5739 5741 5743 5745 5747 5748 5748 5749 5750 5750 5750 5750 5750 5750 5750 5750 5750
5701 5698 5694 5691 5689 5686 5685 5683 5681 5681 5681 5682 5684 5687 5690 5694 5699 5703 5707 5711 5716 5720 5724 5729 5732 5735 5737 5739 5742 5744 5745 5746 5747 5748 5748 5748 5749 5749 5749 5749 5749 5749 5749
5699 5695 5692 5688 5686 5683 5681 5679 5678 5677 5677 5678 5680 5683 5686 5690 5694 5699 5703 5707 5712 5716 5721 5725 5729 5732 5735 5737 5740 5742 5744 5744 5745 5746 5746 5747 5747 5747 5747 5747 5747 5747 5747
5697 5693 5689 5686 5683 5680 5678 5676 5674 5674 5674 5675 5678 5680 5682 5686 5690 5694 5699 5704 5708 5713 5717 5721 5725 5729 5732 5735 5737 5739 5741 5743 5744 5744 5745 5745 5745 5746 5746 5746 5746 5746 5746
5695 5691 5687 5684 5681 5677 5674 5673 5672 5671 5671 5672 5672 5673 5677 5682 5685 5689 5694 5699 5704 5709 5713 5718 5722 5725 5729 5732 5735 5737 5739 5741 5741 5742 5743 5744 5744 5744 5744 5744 5744 5744 5744
5693 5690 5685 5682 5679 5675 5673 5671 5669 5667 5667 5668 5668 5667 5668 5672 5679 5685 5689 5694 5699 5704 5709 5714 5718 5722 5725 5729 5731 5734 5736 5738 5739 5740 5741 5742 5742 5742 5742 5742 5742 5743 5743
5692 5688 5684 5681 5677 5674 5670 5668 5667 5665 5664 5665 5666 5665 5664 5664 5669 5677 5683 5688 5693 5699 5704 5709 5714 5718 5722 5725 5728 5731 5733 5735 5737 5738 5739 5740 5740 5740 5740 5740 5741 5741 5741
5691 5687 5684 5680 5676 5673 5670 5668 5666 5664 5663 5662 5663 5664 5664 5666 5666 5668 5676 5682 5688 5693 5698 5704 5709 5714 5717 5721 5725 5728 5730 5732 5734 5735 5737 5737 5738 5738 5738 5738 5738 5739 5739
5690 5687 5683 5679 5676 5673 5670 5668 5666 5664 5663 5661 5661 5662 5663 5664 5665 5666 5668 5674 5681 5687 5693 5699 5704 5708 5713 5717 5720 5724 5726 5729 5730 5732 5733 5735 5735 5736 5736 5736 5736 5736 5736
5689 5687 5683 5679 5676 5673 5670 5668 5666 5664 5663 5662 5661 5661 5661 5662 5663 5664 5665 5669 5673 5681 5688 5694 5698 5703 5708 5712 5716 5719 5723 5725 5727 5728 5729 5731 5732 5732 5733 5733 5733 5734 5734
5688 5686 5683 5680 5676 5674 5671 5669 5666 5665 5663 5662 5661 5661 5661 5662 5663 5664 5665 5666 5669 5675 5682 5688 5693 5698 5703 5707 5711 5715 5718 5720 5722 5724 5725 5727 5728 5729 5729 5730 5730 5731 5731
5689 5687 5684 5680 5677 5675 5672 5669 5667 5665 5663 5662 5662 5661 5661 5661 5663 5665 5665 5666 5667 5670 5676 5682 5688 5693 5698 5702 5706 5709 5712 5715 5717 5719 5721 5722 5724 5725 5726 5727 5727 5728 5728
5691 5688 5685 5681 5678 5675 5673 5670 5667 5665 5664 5662 5661 5660 5660 5661 5663 5664 5666 5667 5667 5666 5669 5676 5682 5688 5693 5697 5701 5704 5707 5710 5712 5714 5716 5718 5719 5721 5722 5723 5724 5724 5725
5691 5688 5685 5682 5679 5676 5673 5670 5668 5666 5664 5662 5661 5660 5660 5660 5661 5663 5664 5666 5668 5668 5667 5672 5677 5683 5688 5692 5695 5698 5701 5704 5707 5709 5711 5713 5715 5716 5717 5718 5719 5720 5720
5692 5689 5686 5683 5680 5677 5674 5670 5668 5666 5664 5662 5661 5660 5659 5659 5659 5660 5662 5663 5665 5667 5666 5668 5673 5678 5682 5686 5689 5693 5696 5698 5701 5703 5705 5707 5709 5711 5712 5713 5714 5715 5715
5693 5690 5687 5683 5681 5678 5674 5671 5669 5667 5664 5662 5661 5659 5658 5658 5658 5658 5659 5661 5662 5664 5665 5665 5668 5672 5676 5679 5683 5686 5689 5692 5695 5697 5700 5701 5703 5705 5706 5707 5708 5709 5710
5692 5690 5687 5684 5681 5679 5675 5673 5670 5667 5665 5663 5661 5659 5658 5657 5657 5657 5658 5658 5660 5662 5662 5663 5663 5666 5669 5673 5676 5680 5683 5685 5689 5691 5693 5695 5696 5698 5699 5701 5702 5703 5704
5692 5689 5687 5685 5682 5679 5676 5674 5671 5668 5666 5664 5662 5660 5658 5657 5657 5656 5656 5656 5657 5657 5658 5658 5659 5661 5663 5667 5670 5671 5674 5677 5680 5684 5686 5688 5689 5691 5692 5694 5695 5696 5697
5692 5689 5686 5684 5681 5679 5677 5674 5671 5669 5666 5664 5662 5660 5659 5659 5658 5657 5656 5655 5654 5653 5653 5653 5654 5655 5657 5660 5662 5664 5666 5669 5672 5675 5677 5680 5682 5683 5684 5686 5688 5689 5690
5689 5687 5685 5683 5680 5680 5679 5677 5673 5669 5666 5664 5662 5661 5659 5659 5659 5658 5658 5657 5655 5652 5651 5650 5650 5651 5653 5655 5657 5659 5660 5662 5664 5667 5668 5671 5673 5674 5676 5678 5680 5681 5682
5687 5685 5683 5681 5680 5679 5679 5677 5674 5670 5666 5664 5662 5660 5660 5660 5658 5656 5656 5656 5655 5654 5653 5651 5649 5649 5650 5652 5654 5654 5655 5656 5657 5660 5661 5663 5665 5666 5668 5670 5672 5673 5674
5685 5684 5682 5681 5679 5679 5678 5677 5674 5670 5666 5664 5662 5660 5658 5658 5657 5656 5654 5652 5651 5651 5651 5650 5649 5649 5650 5650 5651 5652 5652 5651 5652 5653 5654 5654 5655 5657 5660 5661 5663 5664 5665
5683 5682 5681 5679 5678 5677 5677 5675 5673 5668 5665 5663 5662 5660 5658 5657 5657 5656 5652 5650 5648 5648 5649 5648 5648 5647 5648 5648 5648 5647 5646 5646 5646 5647 5647 5646 5647 5648 5650 5652 5654 5655 5656
5682 5680 5679 5678 5677 5676 5676 5674 5672 5666 5663 5661 5660 5659 5659 5657 5657 5655 5651 5649 5646 5646 5645 5645 5644 5643 5643 5643 5644 5643 5642 5641 5640 5640 5640 5640 5640 5640 5641 5643 5644 5646 5647